Location: Brompton
(51.4000°N, 0.5333°E)
Time: 16:55:48
(UTC+00:00)

Terra - Pass Details

Date: 11 May 2021
Orbit: 701 x 703 km, 98.2° (Epoch: 24 June)

Event Time Altitude Azimuth Distance (km) Brightness Sun altitude
Exits shadow 21:32:45 21° 155° (SSE) 1,556 3.0 -13.9°
Maximum altitude 21:35:56 76° 73° (ENE) 730 1.8 -14.2°
Drops below altitude 10° 21:40:43 10° 348° (NNW) 2,185 5.5 -14.6°
Sets 21:43:00 0° 347° (NNW) 3,108 6.6 -14.8°
